"Pseudo-MPEC" for 6HM3721

Created 2026 Aug 26 0:35:02 UT using Find_Orb

Click here for an explanation of pseudo-MPECs

 
 Astrometry: 
     6HM3721*KC2026 08 23.10676 20 29 34.14 -60 21 39.0    ~8OFo 18.8 GVNEOCPW94
     6HM3721 KC2026 08 23.11294 20 29 25.57 -60 23 15.4    ~8OFo 18.4 GVNEOCPW94
     6HM3721 KC2026 08 23.11914 20 29 17.13 -60 24 53.4    ~8OFo 19.4 GVNEOCPW94
     6HM3721 4C2026 08 23.16088 20 28 18.67 -60 35 52.7    ~8OFo 19.6 VqNEOCPW97
     6HM3721 4C2026 08 23.16680 20 28 10.32 -60 37 26.7    ~8OFo 19.0 VqNEOCPW97
     6HM3721 4C2026 08 23.17276 20 28 02.08 -60 38 58.6    ~8OFo 18.9 VqNEOCPW97
     6HM3721 4C2026 08 23.18146 20 27 49.60 -60 41 12.7    ~8OFox18.7 VqNEOCPW97
     6HM3721 4C2026 08 23.18740 20 27 41.14 -60 42 47.0    ~8OFo       qNEOCPW97
     6HM3721 4C2026 08 23.19332 20 27 32.73 -60 44 20.7    ~8OFo 18.6 VqNEOCPW97

Station data:
(W94) AMACS1, San Pedro de Atacama  (S22.953074 W68.179810)  Chile.  Observers
   A. Maury, G. Attard. Measurers A. Maury, G. Attard, D. Parrott. 0.28-m
   f/2.2 Schmidt + CCD.
(W97) Atacama Desert Observatory, San Pedro de Atacama  (S22.953413
   W68.179760)  Chile.

Orbital elements:  6HM3721
   Perihelion 2026 Oct 11.337440 +/- 9.76 TT =  8:05:54.8 (JD 2461324.837440)
Epoch 2026 Aug 23.0 TT = JDT 2461275.5   Earth MOID: 0.0182   Ma: 0.0327
M 336.819313954 +/- 11              (J2000 ecliptic)             AutoNEOCP
n   0.469839656 +/- 0.148           Peri.   52.293497 +/- 0.6
a   1.638713139 +/- 0.348           Node   343.464218 +/- 14
e   0.49567666 +/- 0.094            Incl.    5.643086 +/- 3.7
P   2.098/766.204d         H 24.07  G  0.15   U 11.5
q 0.826441276 +/- 0.0732    Q 2.450985001 +/- 0.664
8 of 9 observations 2026 Aug. 23 (2.1 hr); mean residual 0".65
Residuals in arcseconds: 
260823 W94  .09+  1.1-    260823 W97  .47-  .16-    260823 W97( .04-  2.4+)   
260823 W94  .44-  .60+    260823 W97  .41-  1.2-    260823 W97  .18-  .92+    
260823 W94  .44+  .86+    260823 W97  1.0+  .28+    260823 W97  .07-  .34-    

Ephemerides (geocentric):
Date (UTC) HH   RA             Dec           delta  r     elong  mag " sig PA
---- --------  ------------   ------------  ------ ------ -----  --- --------
2026 08 26 01  16 54 08.815   -75 38 44.79  .02594 1.0166 102.5 18.8  27d  76
2026 08 26 02  16 45 45.550   -75 43 26.91  .02577 1.0163 102.0 18.8  28d  78
2026 08 26 03  16 37 11.015   -75 47 04.65  .02561 1.0160 101.4 18.8  29d  80
2026 08 26 04  16 28 26.312   -75 49 34.56  .02545 1.0157 100.9 18.9  31d  82
2026 08 26 05  16 19 32.704   -75 50 53.35  .02529 1.0154 100.3 18.9  33d  84
2026 08 26 06  16 10 31.604   -75 50 57.95  .02514 1.0151  99.7 18.9  34d  87
2026 08 26 07  16 01 24.558   -75 49 45.55  .02499 1.0148  99.1 18.9  36d  89
2026 08 26 08  15 52 13.220   -75 47 13.66  .02484 1.0146  98.5 18.9  37d  91
2026 08 26 09  15 42 59.325   -75 43 20.13  .02469 1.0143  97.9 18.9  39d  94
2026 08 26 10  15 33 44.658   -75 38 03.19  .02454 1.0140  97.3 18.9  41d  96
2026 08 26 11  15 24 31.018   -75 31 21.47  .02440 1.0137  96.7 18.9  43d  98
2026 08 26 12  15 15 20.184   -75 23 14.03  .02426 1.0134  96.1 18.9  44d 101
2026 08 26 13  15 06 13.882   -75 13 40.33  .02412 1.0131  95.5 18.9  46d 103
2026 08 26 14  14 57 13.753   -75 02 40.25  .02399 1.0128  94.9 18.9  48d 105
2026 08 26 15  14 48 21.325   -74 50 14.07  .02385 1.0126  94.2 18.9  49d 107
2026 08 26 16  14 39 37.991   -74 36 22.46  .02372 1.0123  93.6 19.0  51d 109
2026 08 26 17  14 31 04.993   -74 21 06.41  .02360 1.0120  93.0 19.0  52d 112
2026 08 26 18  14 22 43.407   -74 04 27.24  .02347 1.0117  92.3 19.0  54d 114
2026 08 26 19  14 14 34.145   -73 46 26.53  .02335 1.0114  91.6 19.0  55d 116
2026 08 26 20  14 06 37.948   -73 27 06.11  .02323 1.0111  91.0 19.0  57d 118
2026 08 26 21  13 58 55.393   -73 06 28.01  .02312 1.0108  90.3 19.0  58d 120
2026 08 26 22  13 51 26.903   -72 44 34.39  .02301 1.0106  89.6 19.0  59d 121
2026 08 26 23  13 44 12.754   -72 21 27.56  .02290 1.0103  88.9 19.1  61d 123
2026 08 27 00  13 37 13.092   -71 57 09.92  .02279 1.0100  88.2 19.1  62d 125
2026 08 27 01  13 30 27.946   -71 31 43.93  .02269 1.0097  87.5 19.1  63d 126
2026 08 27 02  13 23 57.241   -71 05 12.08  .02259 1.0094  86.8 19.1  64d 128
2026 08 27 03  13 17 40.817   -70 37 36.89  .02249 1.0091  86.1 19.1  65d 130
2026 08 27 04  13 11 38.436   -70 09 00.86  .02240 1.0088  85.4 19.2  66d 131
2026 08 27 05  13 05 49.802   -69 39 26.50  .02231 1.0086  84.7 19.2  67d 132
2026 08 27 06  13 00 14.570   -69 08 56.27  .02222 1.0083  84.0 19.2  68d 134
2026 08 27 07  12 54 52.358   -68 37 32.61  .02214 1.0080  83.2 19.2  68d 135
2026 08 27 08  12 49 42.754   -68 05 17.92  .02206 1.0077  82.5 19.3  69d 136
2026 08 27 09  12 44 45.327   -67 32 14.53  .02198 1.0074  81.7 19.3  70d 138
2026 08 27 10  12 39 59.636   -66 58 24.74  .02191 1.0071  81.0 19.3  70d 139
2026 08 27 11  12 35 25.231   -66 23 50.81  .02184 1.0069  80.2 19.3  71d 140
2026 08 27 12  12 31 01.661   -65 48 34.92  .02177 1.0066  79.5 19.4  71d 141
2026 08 27 13  12 26 48.480   -65 12 39.23  .02171 1.0063  78.7 19.4  71d 142
2026 08 27 14  12 22 45.247   -64 36 05.83  .02165 1.0060  78.0 19.4  72d 143
2026 08 27 15  12 18 51.529   -63 58 56.77  .02160 1.0057  77.2 19.5  72d 144
2026 08 27 16  12 15 06.907   -63 21 14.07  .02155 1.0054  76.4 19.5  72d 145
2026 08 27 17  12 11 30.972   -62 42 59.67  .02150 1.0052  75.6 19.5  73d 145
2026 08 27 18  12 08 03.329   -62 04 15.50  .02146 1.0049  74.9 19.6  73d 146
2026 08 27 19  12 04 43.601   -61 25 03.44  .02142 1.0046  74.1 19.6  73d 147
2026 08 27 20  12 01 31.421   -60 45 25.33  .02138 1.0043  73.3 19.6  73d 148
2026 08 27 21  11 58 26.441   -60 05 22.98  .02135 1.0040  72.5 19.7  73d 148
2026 08 27 22  11 55 28.326   -59 24 58.16  .02132 1.0037  71.7 19.7  73d 149
2026 08 27 23  11 52 36.759   -58 44 12.60  .02130 1.0035  70.9 19.8  73d 150
2026 08 28 00  11 49 51.434   -58 03 08.01  .02128 1.0032  70.1 19.8  73d 150